Weather History for Point Salines, Grenada

Change the Weather History Date:

Tuesday, November 29, 2011

  Actual Average Record
Temperature  
Mean Temperature 82 °F -  
Max Temperature 87 °F 83 °F 88 °F (2012)
Min Temperature 78 °F 74 °F 73 °F (1997)
Cooling Degree Days 18    
Growing Degree Days 32 (Base 50)    
Moisture  
Dew Point 79 °F    
Average Humidity 87    
Maximum Humidity 100    
Minimum Humidity 75    
Precipitation  
Precipitation 0.00 in - - ()
Sea Level Pressure  
Sea Level Pressure 29.78 in    
Wind  
Wind Speed 7 mph ()    
Max Wind Speed 13 mph    
Max Gust Speed -    
Visibility 7.8 miles    
Events Thunderstorm    
Averages and records for this station are not official NWS values.
T = Trace of Precipitation, MM = Missing Value Source: Averaged Metar Reports

Daily Weather History Graph

Daily Weather History Graph

Search for Another Location

Airport:

Trip Planner

Search our weather history database for the weather conditions in past years. The results will help you decide how hot, cold, wet, or windy it might be!

Date:

Astronomy

Nov. 29, 2011 Rise Set
Actual Time 6:10 AM AST 5:39 PM AST
Civil Twilight 5:48 AM AST 6:02 PM AST
Nautical Twilight 5:21 AM AST 6:28 PM AST
Astronomical Twilight 4:55 AM AST 6:54 PM AST
Moon 10:10 AM AST 10:07 PM AST
Length of Visible Light 12h 14m
Length of Day
11h 29m
Waxing Crescent, 23% of the Moon is Illuminated
Nov 29
Waxing Crescent
Dec 2
First Quarter
Dec 10
Full
Dec 17
Last Quarter
Dec 24
New

Hourly Weather History & Observations

Time (AST) Temp. Heat Index Dew Point Humidity Pressure Visibility Wind Dir Wind Speed Gust Speed Precip Events Conditions
12:00 AM 80.6 °F 87.1 °F 77.0 °F 89% 29.80 in 6.2 mi SE 9.2 mph - N/A   Scattered Clouds
1:00 AM 80.6 °F 87.1 °F 77.0 °F 89% 29.77 in 6.2 mi SE 9.2 mph - N/A   Scattered Clouds
2:00 AM 82 °F - 78 °F 84% 29.76 in 12 mi SE 9.2 mph - -   Widespread Dust
2:00 AM 80.6 °F 87.1 °F 77.0 °F 89% 29.74 in 6.2 mi SE 9.2 mph - N/A   Scattered Clouds
3:00 AM 82.4 °F 92.4 °F 78.8 °F 89% 29.74 in 6.2 mi East 9.2 mph - N/A   Scattered Clouds
4:00 AM 82.4 °F 92.4 °F 78.8 °F 89% 29.74 in 6.2 mi SSE 10.4 mph - N/A   Scattered Clouds
5:00 AM 82 °F - 80 °F 92% 29.76 in 12 mi SSE 10.4 mph - -   Partly Cloudy
5:00 AM 82.4 °F 94.0 °F 80.6 °F 94% 29.74 in 6.2 mi SSE 10.4 mph - N/A Thunderstorm Scattered Clouds
6:00 AM 82.4 °F 92.4 °F 78.8 °F 89% 29.77 in 6.2 mi SSE 10.4 mph - N/A Thunderstorm Mostly Cloudy
7:00 AM 82.4 °F 92.4 °F 78.8 °F 89% 29.77 in 5.6 mi South 10.4 mph - N/A Thunderstorm Thunderstorm
8:00 AM 84 °F - 79 °F 81% 29.82 in 9 mi SSE 9.2 mph - -   Scattered Clouds
8:00 AM 84.2 °F 96.1 °F 78.8 °F 84% 29.80 in 6.2 mi SSE 9.2 mph - N/A   Mostly Cloudy
9:00 AM 86.0 °F 101.9 °F 80.6 °F 84% 29.83 in 6.2 mi SSE 11.5 mph - N/A   Mostly Cloudy
10:00 AM 86.0 °F 101.9 °F 80.6 °F 84% 29.83 in 6.2 mi South 12.7 mph - N/A   Mostly Cloudy
11:00 AM 86 °F - 79 °F 75% 29.81 in 10 mi South 9.2 mph - -   Widespread Dust
11:00 AM 86.0 °F 99.3 °F 78.8 °F 79% 29.80 in 6.2 mi South 9.2 mph - N/A   Mostly Cloudy
12:00 PM 86.0 °F 101.9 °F 80.6 °F 84% 29.77 in 6.2 mi South 10.4 mph - N/A   Mostly Cloudy
1:00 PM 86.0 °F 99.3 °F 78.8 °F 79% 29.77 in 6.2 mi South 9.2 mph - N/A   Mostly Cloudy
2:00 PM 87 °F - 81 °F 77%  in 14 mi SSE 6.9 mph - -   Widespread Dust
2:00 PM 87.8 °F 104.9 °F 80.6 °F 79% 29.74 in 6.2 mi SSE 6.9 mph - N/A   Mostly Cloudy
3:00 PM 86.0 °F 101.9 °F 80.6 °F 84% 29.74 in 6.2 mi South 5.8 mph - N/A   Mostly Cloudy
4:00 PM 86.0 °F 101.9 °F 80.6 °F 84% 29.74 in 6.2 mi Calm Calm - N/A   Mostly Cloudy
5:00 PM 84 °F - 80 °F 83% 29.76 in 15 mi Calm Calm - -   Widespread Dust
5:00 PM 84.2 °F 98.3 °F 80.6 °F 89% 29.74 in 6.2 mi Calm Calm - N/A   Mostly Cloudy
6:00 PM 82.4 °F 92.4 °F 78.8 °F 89% 29.77 in - North - - N/A   Mostly Cloudy
7:00 PM 80.6 °F 88.1 °F 78.8 °F 94% 29.80 in 6.2 mi Calm Calm - N/A Thunderstorm Mostly Cloudy
8:00 PM 80 °F - 78 °F 91% 29.81 in 14 mi Calm Calm - -   Partly Cloudy
8:00 PM 78.8 °F - 77.0 °F 94% 29.80 in 6.2 mi Calm Calm - N/A Thunderstorm Mostly Cloudy
9:00 PM 80.6 °F 87.1 °F 77.0 °F 89% 29.80 in 6.2 mi Calm Calm - N/A Thunderstorm Mostly Cloudy
10:00 PM 78.8 °F - 77.0 °F 94% 29.83 in 6.2 mi Calm Calm - N/A Thunderstorm Mostly Cloudy
11:00 PM 80 °F - 78 °F 93% 29.84 in 14 mi Calm Calm - -   Widespread Dust
11:00 PM 78.8 °F - 78.8 °F 100% 29.83 in 6.2 mi Calm Calm - N/A   Mostly Cloudy